KD0SBN Weather Reports


time (UTC)temp
F
wind
direction
speed
knots
gust
knots
rain 1hr
in
rain 24hr
in
rain mn
in
humidity
%
barometer
mb
20260505124719 49 74 7.0 11.3 0.00 0.00 0.00 69 1011.8
20260505124215 49 71 6.1 7.0 0.00 0.00 0.00 70 1012.0
20260505123711 49 72 4.3 7.8 0.00 0.00 0.00 69 1011.9
20260505123208 49 85 4.3 7.0 0.00 0.00 0.00 70 1011.9
20260505122705 49 78 6.1 7.8 0.00 0.00 0.00 70 1011.9
20260505122202 49 52 3.5 6.1 0.00 0.00 0.00 70 1011.9
20260505121658 49 75 2.6 2.6 0.00 0.00 0.00 71 1011.5
20260505121155 49 76 3.5 7.8 0.00 0.00 0.00 70 1011.4
20260505120651 49 74 3.5 5.2 0.00 0.00 0.00 70 1011.4
20260505120147 49 77 1.7 2.6 0.00 0.00 0.00 71 1011.4
20260505115641 49 76 3.5 3.5 0.00 0.00 0.00 70 1011.2
20260505115139 49 81 2.6 5.2 0.00 0.00 0.00 69 1011.2
20260505114636 49 76 1.7 3.5 0.00 0.00 0.00 69 1010.9
20260505114132 49 74 3.5 3.5 0.00 0.00 0.00 68 1010.9
20260505113629 49 116 0.9 1.7 0.00 0.00 0.00 69 1011.1
20260505113126 49 99 0.0 1.7 0.00 0.00 0.00 68 1011.2
20260505112622 49 78 0.0 0.0 0.00 0.00 0.00 69 1010.7
20260505112120 48 1 0.9 1.7 0.00 0.00 0.00 68 1010.7
20260505111619 48 354 0.9 0.9 0.00 0.00 0.00 69 1010.6
20260505111116 47 340 0.0 0.9 0.00 0.00 0.00 71 1010.6
20260505110612 48 342 0.0 0.0 0.00 0.00 0.00 70 1010.8
20260505110109 49 348 0.0 0.9 0.00 0.00 0.00 68 1010.8
20260505102045 48 69 0.0 0.9 0.00 0.00 0.00 72 1011.1
20260505101543 49 49 0.9 1.7 0.00 0.00 0.00 71 1011.3
20260505101039 50 16 0.0 1.7 0.00 0.00 0.00 69 1011.3
20260505100536 50 353 1.7 2.6 0.00 0.00 0.00 68 1011.1
20260505100033 49 339 0.9 1.7 0.00 0.00 0.00 70 1010.8
20260505095529 49 334 0.9 1.7 0.00 0.00 0.00 70 1011.1
20260505095026 50 341 0.9 1.7 0.00 0.00 0.00 69 1010.9
20260505094522 50 339 0.0 0.9 0.00 0.00 0.00 69 1011.1
20260505094019 50 335 0.0 0.9 0.00 0.00 0.00 69 1011.1
20260505093515 50 331 0.0 1.7 0.00 0.00 0.00 69 1011.2
20260505093013 50 323 0.9 0.9 0.00 0.00 0.00 69 1011.1
20260505092510 50 318 0.9 1.7 0.00 0.00 0.00 69 1010.9
20260505092008 50 312 0.0 1.7 0.00 0.00 0.00 70 1010.8
20260505091505 50 330 0.9 0.9 0.00 0.00 0.00 70 1010.8
20260505091003 50 326 0.9 0.9 0.00 0.00 0.00 70 1010.9
20260505090501 51 310 0.0 0.0 0.00 0.00 0.00 69 1010.9
20260505085958 51 322 0.0 0.0 0.00 0.00 0.00 68 1010.9
20260505085455 51 314 0.0 0.9 0.00 0.00 0.00 68 1010.9
20260505084954 51 314 0.0 0.9 0.00 0.00 0.00 67 1010.9
20260505084452 52 341 0.9 2.6 0.00 0.00 0.00 66 1010.9
20260505083949 52 4 2.6 2.6 0.00 0.00 0.00 65 1011.1
20260505083446 53 5 0.9 2.6 0.00 0.00 0.00 65 1011.1
20260505082942 53 344 3.5 5.2 0.00 0.00 0.00 64 1010.9
20260505082438 53 358 1.7 5.2 0.00 0.00 0.00 64 1010.8
20260505081936 53 6 3.5 6.1 0.00 0.00 0.00 64 1010.9
20260505081432 52 10 3.5 5.2 0.00 0.00 0.00 66 1011.1
20260505080928 53 10 0.9 2.6 0.00 0.00 0.00 67 1011.1
20260505080425 53 0 1.7 3.5 0.00 0.00 0.00 67 1011.1
20260505075920 53 303 2.6 2.6 0.00 0.00 0.00 66 1010.9
20260505075417 53 1 3.5 3.5 0.00 0.00 0.00 66 1011.1
20260505074915 53 349 3.5 5.2 0.00 0.00 0.00 66 1010.8
20260505074412 53 354 3.5 3.5 0.00 0.00 0.00 66 1011.1
20260505073909 53 329 1.7 2.6 0.00 0.00 0.00 66 1010.8
20260505073407 53 352 1.7 2.6 0.00 0.00 0.00 66 1010.8
20260505072904 53 311 1.7 2.6 0.00 0.00 0.00 66 1011.1
20260505072359 54 319 0.9 1.7 0.00 0.00 0.00 66 1010.9
20260505071856 54 1 1.7 3.5 0.00 0.00 0.00 65 1010.6
20260505071352 54 359 1.7 6.1 0.00 0.00 0.00 64 1010.5
20260505070851 55 340 2.6 5.2 0.00 0.00 0.00 64 1010.5
20260505070347 55 289 2.6 6.1 0.00 0.00 0.00 63 1010.6
20260505065842 55 348 3.5 7.0 0.00 0.00 0.00 63 1010.2
20260505065339 55 345 4.3 7.8 0.00 0.00 0.00 62 1010.1
20260505064836 55 347 5.2 11.3 0.00 0.00 0.00 62 1010.0
20260505064333 56 347 5.2 9.6 0.00 0.00 0.00 61 1010.1
20260505063832 56 350 5.2 6.1 0.00 0.00 0.00 60 1010.6
20260505063327 56 358 5.2 8.7 0.00 0.00 0.00 60 1010.5
20260505062824 56 356 6.1 7.8 0.00 0.00 0.00 60 1010.6
20260505062322 56 350 4.3 7.0 0.00 0.00 0.00 60 1010.4
20260505061818 56 5 4.3 7.0 0.00 0.00 0.00 60 1010.5
20260505061316 56 309 2.6 7.0 0.00 0.00 0.00 60 1010.4
20260505060813 56 338 2.6 5.2 0.00 0.00 0.00 59 1010.5
20260505060310 57 350 4.3 7.0 0.00 0.00 0.00 58 1010.7
20260505055806 57 351 7.0 8.7 0.00 0.00 0.00 58 1010.8
20260505055303 57 302 6.1 7.8 0.00 0.00 0.00 58 1010.5
20260505054800 57 350 7.0 9.6 0.00 0.00 0.00 58 1010.7
20260505054257 57 359 7.8 11.3 0.00 0.00 0.00 57 1010.6
20260505053755 57 356 4.3 7.0 0.00 0.00 0.00 59 1010.4
20260505053252 57 329 5.2 7.0 0.00 0.00 0.00 59 1010.4
20260505052749 56 358 4.3 7.0 0.00 0.00 0.00 59 1010.5
20260505052246 57 302 4.3 7.8 0.00 0.00 0.00 59 1010.4
20260505051742 57 344 4.3 6.1 0.00 0.00 0.00 59 1010.4
20260505051241 57 313 4.3 6.1 0.00 0.00 0.00 59 1010.2
20260505050738 57 338 2.6 7.8 0.00 0.00 0.00 59 1010.5
20260505050237 57 31 3.5 7.8 0.00 0.00 0.00 58 1010.5
20260505041706 58 309 2.6 3.5 0.00 0.00 0.00 59 1010.2
20260505041203 57 354 3.5 6.1 0.00 0.00 0.00 58 1010.2
20260505040700 58 348 7.0 9.6 0.00 0.00 0.00 59 1010.2
20260505040158 58 337 8.7 11.3 0.00 0.00 0.00 59 1010.1
20260505035654 59 324 5.2 9.6 0.00 0.00 0.00 53 1010.2
20260505035150 59 330 5.2 12.2 0.00 0.00 0.00 51 1009.9
20260505034647 59 340 7.8 12.2 0.00 0.00 0.00 50 1009.5
20260505034144 60 321 5.2 11.3 0.00 0.00 0.00 50 1009.5
20260505033640 60 331 7.0 9.6 0.00 0.00 0.00 50 1009.2
20260505033139 60 332 6.1 9.6 0.00 0.00 0.00 50 1009.1
20260505032636 60 346 7.0 11.3 0.00 0.00 0.00 51 1009.0
20260505032133 60 320 4.3 7.8 0.00 0.00 0.00 52 1009.0
20260505031630 60 333 5.2 11.3 0.00 0.00 0.00 52 1008.8
20260505031126 60 296 6.1 9.6 0.00 0.00 0.00 52 1008.7
20260505030623 60 298 3.5 7.8 0.00 0.00 0.00 52 1008.7
20260505030119 60 323 4.3 14.8 0.00 0.00 0.00 50 1008.4
20260505025615 60 329 4.3 13.0 0.00 0.00 0.00 50 1008.4
20260505025114 60 266 5.2 7.0 0.00 0.00 0.00 52 1008.3
20260505024611 61 349 10.4 19.1 0.00 0.00 0.00 49 1008.4
20260505024108 61 4 13.0 19.1 0.00 0.00 0.00 49 1008.0
20260505023605 61 320 8.7 12.2 0.00 0.00 0.00 48 1007.9
20260505023103 61 344 9.6 13.9 0.00 0.00 0.00 48 1007.7
20260505022600 62 7 8.7 11.3 0.00 0.00 0.00 47 1007.3
20260505022057 62 354 8.7 13.9 0.00 0.00 0.00 46 1007.4
20260505021553 62 11 7.8 12.2 0.00 0.00 0.00 44 1007.6
20260505021050 62 0 7.8 11.3 0.00 0.00 0.00 44 1007.7
20260505020550 63 296 8.7 13.0 0.00 0.00 0.00 43 1007.7
20260505020048 63 334 5.2 12.2 0.00 0.00 0.00 42 1007.6
20260505015544 64 336 7.8 15.6 0.00 0.00 0.00 41 1007.3
20260505015041 65 313 9.6 11.3 0.00 0.00 0.00 40 1007.1
20260505014538 66 346 7.8 22.6 0.00 0.00 0.00 38 1007.1
20260505014035 67 345 9.6 15.6 0.00 0.00 0.00 37 1007.0
20260505013532 66 333 7.0 12.2 0.00 0.00 0.00 36 1006.6
20260505013030 66 310 3.5 11.3 0.00 0.00 0.00 37 1006.7
20260505012528 67 277 5.2 7.0 0.00 0.00 0.00 37 1006.6
20260505012025 67 1 9.6 13.0 0.00 0.00 0.00 37 1006.4
20260505011520 67 355 7.8 13.9 0.00 0.00 0.00 37 1006.2
20260505011017 67 10 5.2 7.8 0.00 0.00 0.00 37 1005.9
20260505010512 67 288 7.0 16.5 0.00 0.00 0.00 36 1005.6
20260505010009 68 292 8.7 13.9 0.00 0.00 0.00 35 1005.7
20260505005506 68 15 5.2 11.3 0.00 0.00 0.00 35 1005.9
20260505005004 69 352 4.3 8.7 0.00 0.00 0.00 34 1005.8
20260505004501 69 351 7.8 12.2 0.00 0.00 0.00 33 1005.9
20260505003957 70 329 6.1 13.9 0.00 0.00 0.00 32 1005.6
20260505003454 70 23 6.1 12.2 0.00 0.00 0.00 32 1005.5
20260505002950 70 8 6.1 13.9 0.00 0.00 0.00 32 1005.5
20260505002446 70 11 7.0 13.0 0.00 0.00 0.00 31 1005.5
20260505001945 71 355 8.7 13.9 0.00 0.00 0.00 31 1005.5
20260505001442 71 15 10.4 14.8 0.00 0.00 0.00 30 1005.3
20260505000939 71 336 8.7 9.6 0.00 0.00 0.00 30 1005.6
20260505000437 71 6 8.7 13.0 0.00 0.00 0.00 30 1005.6
20260504235934 72 317 3.5 7.8 0.00 0.00 0.00 30 1005.3
20260504235431 72 325 1.7 7.0 0.00 0.00 0.00 30 1005.3
20260504234927 72 7 3.5 5.2 0.00 0.00 0.00 29 1005.6
20260504234425 72 356 8.7 13.0 0.00 0.00 0.00 30 1005.5
20260504233921 72 18 6.1 11.3 0.00 0.00 0.00 29 1005.5
20260504233417 73 281 6.1 8.7 0.00 0.00 0.00 29 1005.3
20260504232914 73 291 3.5 9.6 0.00 0.00 0.00 29 1005.6
20260504232411 73 310 4.3 7.0 0.00 0.00 0.00 29 1005.2
20260504231908 73 325 3.5 5.2 0.00 0.00 0.00 30 1005.2
20260504231404 74 276 5.2 8.7 0.00 0.00 0.00 29 1005.2
20260504230901 77 274 4.3 7.8 0.00 0.00 0.00 25 1005.2
20260504230358 76 282 9.6 15.6 0.00 0.00 0.00 22 1005.2
20260504225856 76 284 7.8 14.8 0.00 0.00 0.00 22 1004.9
20260504225353 77 263 12.2 14.8 0.00 0.00 0.00 22 1004.9
20260504224850 77 276 11.3 20.0 0.00 0.00 0.00 23 1004.9
20260504224347 76 275 10.4 19.1 0.00 0.00 0.00 23 1005.0
20260504223844 77 294 11.3 16.5 0.00 0.00 0.00 24 1004.8
20260504223339 77 316 12.2 16.5 0.00 0.00 0.00 24 1004.9
20260504222836 77 277 7.0 14.8 0.00 0.00 0.00 23 1004.9
20260504222333 77 249 13.0 16.5 0.00 0.00 0.00 23 1004.6
20260504221831 77 294 7.8 14.8 0.00 0.00 0.00 23 1005.0
20260504221327 78 234 11.3 16.5 0.00 0.00 0.00 23 1005.0
20260504220825 77 265 7.8 13.9 0.00 0.00 0.00 23 1005.2
20260504220321 77 277 7.8 9.6 0.00 0.00 0.00 23 1005.0
20260504215819 78 270 13.0 15.6 0.00 0.00 0.00 23 1005.2
20260504215315 77 265 9.6 13.0 0.00 0.00 0.00 24 1005.3
20260504214811 77 303 7.8 13.0 0.00 0.00 0.00 24 1005.3
20260504214308 77 266 9.6 13.0 0.00 0.00 0.00 23 1005.1
20260504213805 77 285 14.8 18.2 0.00 0.00 0.00 23 1005.3
20260504213301 77 237 11.3 18.2 0.00 0.00 0.00 23 1005.6
20260504212758 77 257 14.8 19.1 0.00 0.00 0.00 24 1005.8
20260504212254 77 265 13.0 18.2 0.00 0.00 0.00 25 1005.9
20260504211752 78 286 12.2 20.0 0.00 0.00 0.00 24 1005.9
20260504211248 77 228 11.3 19.1 0.00 0.00 0.00 25 1005.8
20260504210746 77 283 12.2 15.6 0.00 0.00 0.00 24 1005.9
20260504210243 77 296 13.0 20.0 0.00 0.00 0.00 25 1005.9
20260504205739 78 256 15.6 22.6 0.00 0.00 0.00 24 1006.0
20260504205238 77 253 14.8 21.7 0.00 0.00 0.00 24 1006.2
20260504204735 77 274 19.1 23.5 0.00 0.00 0.00 24 1006.3
20260504204233 77 276 13.0 26.1 0.00 0.00 0.00 25 1006.0
20260504203733 78 276 13.0 18.2 0.00 0.00 0.00 25 1006.2
20260504203229 79 239 14.8 20.0 0.00 0.00 0.00 25 1006.2
20260504202729 79 268 13.9 18.2 0.00 0.00 0.00 25 1006.0
20260504202227 78 284 9.6 19.1 0.00 0.00 0.00 23 1006.3
20260504201724 78 276 11.3 23.5 0.00 0.00 0.00 23 1006.4
20260504201221 78 295 15.6 20.9 0.00 0.00 0.00 24 1006.3
20260504200719 78 287 15.6 21.7 0.00 0.00 0.00 25 1006.4
20260504200214 78 270 7.0 18.2 0.00 0.00 0.00 24 1006.2
20260504195711 79 300 8.7 12.2 0.00 0.00 0.00 22 1006.2
20260504195207 79 296 13.9 18.2 0.00 0.00 0.00 21 1006.3
20260504194704 79 294 13.0 20.0 0.00 0.00 0.00 21 1006.2
20260504194200 80 278 9.6 18.2 0.00 0.00 0.00 21 1006.3
20260504193657 80 350 3.5 7.8 0.00 0.00 0.00 20 1006.3
20260504193154 79 257 12.2 20.0 0.00 0.00 0.00 21 1006.3
20260504192652 78 270 8.7 11.3 0.00 0.00 0.00 21 1006.5
20260504192150 76 292 12.2 14.8 0.00 0.00 0.00 21 1006.4
20260504191648 78 267 4.3 9.6 0.00 0.00 0.00 21 1006.6
20260504191144 78 252 4.3 9.6 0.00 0.00 0.00 22 1006.6
20260504190640 79 280 7.8 13.9 0.00 0.00 0.00 21 1006.4
20260504190137 80 274 2.6 3.5 0.00 0.00 0.00 19 1006.7
20260504185633 78 13 1.7 2.6 0.00 0.00 0.00 20 1006.6
20260504185130 80 287 2.6 9.6 0.00 0.00 0.00 19 1007.2
20260504184626 78 299 4.3 6.1 0.00 0.00 0.00 20 1006.7
20260504184121 77 279 7.0 7.8 0.00 0.00 0.00 20 1007.0
20260504183619 79 261 8.7 13.9 0.00 0.00 0.00 21 1007.2
20260504183116 80 265 2.6 8.7 0.00 0.00 0.00 21 1007.2
20260504182614 76 255 3.5 5.2 0.00 0.00 0.00 23 1006.9
20260504182111 77 268 8.7 16.5 0.00 0.00 0.00 22 1007.2
20260504181608 78 285 9.6 15.6 0.00 0.00 0.00 22 1007.1
20260504181106 78 288 3.5 7.8 0.00 0.00 0.00 21 1007.1
20260504180605 77 220 7.0 13.0 0.00 0.00 0.00 23 1007.4
20260504180103 77 236 12.2 16.5 0.00 0.00 0.00 23 1007.2
20260504175600 77 206 10.4 15.6 0.00 0.00 0.00 23 1007.3
20260504175057 77 269 10.4 13.0 0.00 0.00 0.00 23 1007.4
20260504174555 78 330 1.7 6.1 0.00 0.00 0.00 23 1007.8
20260504174051 77 285 7.8 14.8 0.00 0.00 0.00 24 1007.9
20260504173548 77 288 6.1 14.8 0.00 0.00 0.00 24 1007.9
20260504173046 76 276 7.0 13.0 0.00 0.00 0.00 26 1007.8
20260504172541 77 260 5.2 11.3 0.00 0.00 0.00 26 1007.9
20260504172038 76 234 10.4 13.0 0.00 0.00 0.00 26 1008.0
20260504171535 75 253 6.1 13.0 0.00 0.00 0.00 27 1008.3
20260504171032 76 266 7.8 13.0 0.00 0.00 0.00 26 1008.3
20260504170528 75 236 11.3 13.9 0.00 0.00 0.00 26 1008.6
20260504150912 70 302 20.0 26.1 0.00 0.00 0.00 30 1009.4
20260504150409 70 279 19.1 23.5 0.00 0.00 0.00 31 1009.3
20260504140835 65 292 13.0 20.0 0.00 0.00 0.00 36 1009.3
20260504140331 66 277 13.9 18.2 0.00 0.00 0.00 36 1009.3
20260504130800 63 280 11.3 13.0 0.00 0.00 0.00 37 1009.5
20260504130256 63 271 8.7 14.8 0.00 0.00 0.00 37 1009.5